Regional Weather Roundup
Issued by NWS Grand Forks, ND

Home | Current Version | Previous Version | Graphics & Text | Print | Product List | Glossary On
Versions: 1 2 3 4 5 6 7 8 9 10 11 12 13 14 15 16 17 18 19 20 21 22 23 24 25 26 27 28 29 30 31 32 33 34 35 36 37 38 39 40 41 42 43 44 45 46 47 48 49 50
000
ASUS43 KFGF 191431
RWRFGF
PRAIRIE TO PINES  WEATHER ROUNDUP
NATIONAL WEATHER SERVICE EASTERN NORTH DAKOTA/GRAND FORKS ND
800 AM CST SUN NOV 19 2017

 **SATELLITE DATA USED TO AUGMENT SKY COVER AT AUTOMATED STATIONS**
 *****  WEATHER ACROSS EASTERN NORTH DAKOTA  *****

CITY           SKY/WX    TMP DP  RH WIND       PRES   REMARKS
GRAND FORKS    MOCLDY    17  13  84 S6        29.91F WCI   9
GRAND FRKS AFB FLURRIES  16  12  86 S7        29.89S WCI   6
GRAND FRKS NWS   N/A     18 N/A N/A S5          N/A  WCI  11
DEVILS LAKE    FAIR      24  20  84 SW8       29.84F WCI  15
FARGO          FAIR      19  14  81 S6        29.95F WCI  11
WAHPETON ARPT  NOT AVBL
$$

 ***** WEATHER ACROSS CENTRAL AND WESTERN NORTH DAKOTA  *****

CITY           SKY/WX    TMP DP  RH WIND       PRES   REMARKS
BISMARCK       FAIR      21  18  88 SW6       29.92F WCI  13
MINOT          FAIR      29  21  72 SW16      29.83S WCI  17
JAMESTOWN      FAIR      22  19  89 S5        29.89F WCI  16
MINOT AFB      FAIR      24  19  81 SW7       29.82S WCI  16
GARRISON         N/A     25  22  88 W8        29.86R WCI  16
WILLISTON      FAIR      20  17  88 CALM      29.87S
DICKINSON      FAIR      27  19  72 W10       29.87S WCI  17
HETTINGER      FAIR      18  13  80 NW7       29.93F WCI   9
$$

 *****  OTHER AIRPORT OBSERVATIONS IN OUR AREA  *****

CITY           SKY/WX    TMP DP  RH WIND       PRES   REMARKS
WALHALLA       FAIR      18  16  93 E3        29.88S
GRAFTON AIRPOR NOT AVBL
VALLEY CITY AR NOT AVBL
CANDO          PTSUNNY   14  14 100 S3        29.84F
CAVALIER APRT  FAIR      18  12  79 CALM      29.88F
GWINNER          N/A     19  18  93 SW15      29.94S WCI   5
SHEYENNE NWR     N/A     17  15  93 SW6       29.95S WCI   9
ROLLA          FAIR      21  18  86 W15       29.78F WCI   8
 ***** THE ABOVE OBSERVATIONS ARE NON NWS ARE NOT QUALITY
       CONTROLLED AND MAY MIS-REPORT RAIN FOR SNOW...
$$

  *****  WEATHER ACROSS NORTHERN MINNESOTA  *****

CITY           SKY/WX    TMP DP  RH WIND       PRES   REMARKS
FLAG ISLAND    CLOUDY     7   1  78 SW8       29.89R WCI  -6
WARROAD        FAIR      12   9  85 SW5       29.90F WCI   4
ROSEAU         CLOUDY    16  10  79 SW6       29.91S WCI   7
HALLOCK        MOCLDY    14  10  85 SE3       29.90F
THF RVR FALLS  CLOUDY    15  11  83 SW8       29.92F WCI   4
BAUDETTE       CLOUDY     9   5  84 SW5       29.89F WCI   1
WASKISH        CLOUDY    16  10  79 W6        29.91S WCI   7
CROOKSTON      MOCLDY    18  12  79 S6        29.93F WCI   9
STEPHEN NDAWN    N/A     16  10  79 S5          N/A  WCI   9
GREENBUSH NDAW   N/A     14   9  79 SW3         N/A
$$
  *****  WEATHER ACROSS CENTRAL AND WEST MINNESOTA  *****

CITY           SKY/WX    TMP DP  RH WIND       PRES   REMARKS
FOSSTON        CLOUDY    14  10  85 S8        29.93S WCI   3
BEMIDJI        CLOUDY    12   8  85 SW5       29.91S WCI   4
PARK RAPIDS    FAIR      13   8  81 S3        29.93F
ELBOW LAKE     FAIR      17  14  88 E6        29.98F FOG     WCI   9
WADENA         CLOUDY    14  10  85 CALM      29.96R
DETROIT LAKES  FAIR      19  16  86 S6        29.94F WCI  11
MOORHEAD       FAIR      16  12  86 CALM      29.96F
FERGUS FALLS   FAIR      18  12  79 SE6       30.00F WCI   9
MORRIS MN      FAIR      19  18  93 S7        29.98F WCI  10
STAPLES        MOCLDY    16  10  79 SW5       29.98R WCI   9
$$
  *****  WEATHER ELSEWHERE ACROSS MINNESOTA  *****

CITY           SKY/WX    TMP DP  RH WIND       PRES   REMARKS
DULUTH         FAIR       8   5  87 W10       29.94R WCI  -6
INTRNTL FALLS  CLOUDY     7   2  80 W6        29.91R WCI  -3
ELY            FAIR       7   3  85 W3        29.90S
CLOQUET        FAIR      12   7  79 SW6       29.95S WCI   3
WHEATON        FAIR      21  16  79 S7        30.00S WCI  13
BRAINERD       FAIR      15  10  80 SW6       29.98F WCI   6
HIBBING        FAIR       6   4  91 CALM      29.93R
ALEXANDRIA     FAIR      18  13  80 SW8       29.98F WCI   8
SAINT CLOUD    FAIR      15  12  88 S3        30.03S
MINNEAPOLIS    FAIR      18  13  80 W6        30.08F WCI  10
$$

  *****  WEATHER ACROSS SOUTH DAKOTA  *****

CITY           SKY/WX    TMP DP  RH WIND       PRES   REMARKS
SIOUX FALLS    FAIR      27  19  72 SW5       30.08S WCI  22
BROOKINGS      FAIR      22  17  81 S7        30.04F WCI  13
WATERTOWN      FAIR      23  21  92 SW9       29.99F WCI  13
HURON          FAIR      21  19  92 S7        30.04F WCI  12
SISSETON         N/A     30  21  69 W5        29.96F
ABERDEEN       FAIR      17  15  92 SE10      30.00S WCI   5
MITCHELL       FAIR      27  22  81 SW8       30.07F WCI  19
PIERRE         FAIR      23  19  85 VRB5      30.01F WCI  17
MOBRIDGE       FAIR      23  19  85 SE7       29.94F WCI  15
RAPID CITY     FAIR      19  11  70 CALM      29.98F
$$

  *****  SOME WEATHER IN NEARBY STATES *****

CITY           SKY/WX    TMP DP  RH WIND       PRES   REMARKS
GLASGOW MT     FAIR      27  19  72 SW5       29.86F WCI  22
GREAT FALLS MT FAIR      40  12  32 SW31G43   29.85S
CHEYENNE WY    FAIR      37  10  32 W16G25    30.11F
SCOTTSBLUFF NE FAIR      18  12  77 NE6       30.10F WCI  10
OMAHA NE       FAIR      25  19  78 SE9       30.21S WCI  15
DES MOINES IA  FAIR      24  17  74 SW3       30.19R
DAVENPORT IA   FAIR      22  15  75 NW13G18   30.13R WCI  10
CHICAGO IL     FAIR      30  18  60 NW14      30.00R WCI  19
EAU CLAIRE WI  FAIR      17  11  77 W8        30.04R WCI   7
LA CROSSE WI   FAIR      22  12  65 W10       30.08R WCI  11
$$

  *****  SOME NATIONAL WEATHER *****

CITY           SKY/WX    TMP DP  RH WIND       PRES   REMARKS
LA GUARDIA NY  PTSUNNY   54  40  59 W25G40    29.31R
RALEIGH NC     FAIR      53  35  50 NW8G20    29.79R
ATLANTA GA     FAIR      45  34  65 N15G30    30.01R
NEW ORLEANS LA FAIR      53  38  56 N15G28    30.20R
OKLAHOMA CITY  FAIR      30  26  85 SW3       30.34R
ALBUQUERQUE NM FAIR      30   8  39 N9        30.32S WCI  22
SALT LAKE CITY MOCLDY    30  23  75 E6        30.27F WCI  24
LOS ANGELES CA FAIR      58  22  24 N5        30.06R
BOISE ID       FAIR      30  22  72 NE5       30.21R
SEATTLE WA     FAIR      40  33  76 SE9       29.99F
$$

*** WEATHER ACROSS MANITOBA...SASKATCHEWAN AND ONTARIO ***
                ***ONTARIO***

CITY           SKY/WX    TMP DP  RH WIND       PRES   REMARKS
GERALDTON      FLURRIES   9   5  85 CALM      29.77S
THUNDER BAY    FLURRIES  16  10  79 W5        29.88S WCI   9
SIOUX LOOKOUT  FLURRIES   9   5  85 W8        29.81S WCI  -4
TORONTO        MOSUNNY   37  28  70 NW17G24   29.58R
BIG TROUT LK   FLURRIES   9   5  85 W12       29.65S WCI  -6
PICKLE LAKE    FLURRIES   9   5  85 W10       29.72F WCI  -6
DRYDEN         FLURRIES   5   3  92 W7        29.83F WCI  -7
KENORA         MOCLDY     3   1  92 W5        29.85S WCI  -6
$$
                *** MANITOBA***

CITY           SKY/WX    TMP DP  RH WIND       PRES   REMARKS
BRANDON        PTCLDY    10   7  85 CALM      29.82F
DAUPHIN        CLOUDY    14  10  85 E6        29.85R WCI   5
ISLAND LAKE    FLURRIES   5   1  85 W16G24    29.73S WCI -14
PILOT MOUND      N/A     18  14  86 S5          N/A  WCI  11
THE PAS        PTCLDY    -8 -13  77 S2        29.82F
THOMPSON       FLURRIES   7   1  78 W7        29.70R WCI  -5
WINNIPEG       FLURRIES  12   7  79 SE2       29.90F
LYNN LAKE      FLURRIES   3   0  85 NW12G18   29.72S WCI -13
CHURCHILL      LGT SNOW  14  12  92 N10       29.45R DRFTSNOWWCI   1
GILLAM         LGT SNOW   3  -2  78 W17G23    29.63  WCI -17
$$
                ***SASKATCHEWAN***

CITY           SKY/WX    TMP DP  RH WIND       PRES   REMARKS
ESTEVAN        PTCLDY    18  14  86 SW7       29.81S WCI   8
KINDERSLEY     PTCLDY    12   9  85 S3        29.67F
LLOYDMINSTER   MOCLDY    10   9  92 E9        29.65F WCI  -2
PRINCE ALBERT  CRYSTALS  -2  -6  84 CALM      29.84R FOG
REGINA         PTCLDY    16  14  93 W5        29.78F WCI   9
YORKTON        PTCLDY    10   9  92 SW7       29.78S WCI   0
N. BATTLEFORD  CLEAR      7   1  78 E10       29.74F WCI  -8
LA RONGE       PTCLDY    -6  -9  84 W2        29.86S
SASKATOON      PTCLDY     5   1  85 NE5       29.78F WCI  -4
SWIFT CURRENT  CLEAR     27  18  69 SW15      29.72F WCI  15
$$
NOTE: THESE ARE AUTOMATED STATIONS WITH LIMITED QUALITY CONTROL
      "FAIR" INDICATES FEW OR NO CLOUDS BELOW 12,000 FEET WITH NO
      SIGNIFICANT WEATHER AND/OR OBSTRUCTIONS TO VISIBILITY.
      SKY/WX - SKY CONDITION AND SIGNIFICANT WEATHER.
      TMP - AIR TEMPERATURE.    DP   - DEWPOINT TEMPERATURE.
      RH  - RELATIVE HUMIDITY.  PRES - PRESSURE.
      HX  - HEAT INDEX.         WCI  - WIND CHILL INDEX.
$



USA.gov is the U.S. government's official web portal to all federal, state and local government web resources and services.